CW9451 Weather Reports


Display with metric or nautical units.
time (UTC)temp
F
wind
direction
speed
MPH
gust
MPH
rain 1hr
in
rain 24hr
in
rain mn
in
humidity
%
barometer
mb
20260504190909 65 0.0 0.0 0.00 0.00 0.00 10 1015.2
20260504184904 65 0.0 0.0 0.00 0.00 0.00 99 1015.2
20260504183904 65 0.0 0.0 0.00 0.00 0.00 10 1015.4
20260504182904 64 0.0 0.0 0.00 0.00 0.00 98 1015.0
20260504181904 66 0.0 0.0 0.00 0.00 0.00 93 1014.7
20260504180903 66 0.0 0.0 0.00 0.00 0.00 88 1014.6
20260504175904 66 0.0 0.0 0.00 0.00 0.00 84 1014.2
20260504174904 67 0.0 0.0 0.00 0.00 0.00 83 1014.0
20260504173904 67 0.0 0.0 0.00 0.00 0.00 81 1013.5
20260504172904 68 0.0 0.0 0.00 0.00 0.00 78 1013.4
20260504171904 69 0.0 0.0 0.00 0.00 0.00 81 1013.4
20260504170904 69 0.0 0.0 0.00 0.00 0.00 80 1013.2
20260504150905 74 0.0 0.0 0.00 0.00 0.00 64 1012.3
20260504140904 79 0.0 0.0 0.00 0.00 0.00 57 1012.7
20260504081903 63 0.0 0.0 0.00 0.00 0.00 82 1016.8
20260504080904 63 0.0 0.0 0.00 0.00 0.00 83 1016.9
20260504045909 59 0.0 0.0 0.00 0.00 0.00 86 1015.7
20260504042904 58 0.0 0.0 0.00 0.00 0.00 85 1015.4
20260504041905 58 0.0 0.0 0.00 0.00 0.00 84 1015.4
20260504040904 58 0.0 0.0 0.00 0.00 0.00 84 1015.2
20260504035904 58 0.0 0.0 0.00 0.00 0.00 84 1015.2
20260504034904 59 0.0 0.0 0.00 0.00 0.00 84 1015.1
20260504033904 58 0.0 0.0 0.00 0.00 0.00 83 1015.0
20260504032905 58 0.0 0.0 0.00 0.00 0.00 82 1014.9
20260504031904 59 0.0 0.0 0.00 0.00 0.00 82 1014.8
20260504030904 59 0.0 0.0 0.00 0.00 0.00 82 1014.8
20260504025909 59 0.0 0.0 0.00 0.00 0.00 82 1014.7
20260504022903 60 0.0 0.0 0.00 0.00 0.00 83 1015.0
20260504021903 60 0.0 0.0 0.00 0.00 0.00 83 1015.0
20260504020904 60 0.0 0.0 0.00 0.00 0.00 82 1015.0
20260504015905 60 0.0 0.0 0.00 0.00 0.00 81 1015.0
20260504014904 60 0.0 0.0 0.00 0.00 0.00 80 1014.9
20260504013904 60 0.0 0.0 0.00 0.00 0.00 79 1014.6
20260504012904 60 0.0 0.0 0.00 0.00 0.00 79 1014.4
20260504011904 60 0.0 0.0 0.00 0.00 0.00 79 1014.2
20260504010904 60 0.0 0.0 0.00 0.00 0.00 78 1014.2
20260504005909 60 0.0 0.0 0.00 0.00 0.00 78 1014.3
20260504003909 61 0.0 0.0 0.00 0.00 0.00 77 1014.2
20260504001908 62 0.0 0.0 0.00 0.00 0.00 78 1014.1
20260503235903 62 0.0 0.0 0.00 0.00 0.00 78 1014.2
20260503234904 63 0.0 0.0 0.00 0.00 0.00 78 1014.2
20260503233905 63 0.0 0.0 0.00 0.00 0.00 78 1014.2
20260503232904 63 0.0 0.0 0.00 0.00 0.00 78 1014.1
20260503231904 63 0.0 0.0 0.00 0.00 0.00 78 1014.1
20260503230905 64 0.0 0.0 0.00 0.00 0.00 78 1014.2
20260503225905 64 0.0 0.0 0.00 0.00 0.00 76 1014.2
20260503224903 64 0.0 0.0 0.00 0.00 0.00 73 1014.2
20260503223904 64 0.0 0.0 0.00 0.00 0.00 70 1014.0
20260503222904 65 0.0 0.0 0.00 0.00 0.00 69 1014.0
20260503221904 65 0.0 0.0 0.00 0.00 0.00 68 1014.0
20260503220909 65 0.0 0.0 0.00 0.00 0.00 67 1014.0
20260503214904 65 0.0 0.0 0.00 0.00 0.00 65 1014.0
20260503213904 65 0.0 0.0 0.00 0.00 0.00 65 1013.8
20260503212904 65 0.0 0.0 0.00 0.00 0.00 65 1013.8
20260503211904 66 0.0 0.0 0.00 0.00 0.00 64 1013.9
20260503210904 66 0.0 0.0 0.00 0.00 0.00 64 1013.6
20260503205904 66 0.0 0.0 0.00 0.00 0.00 64 1013.6
20260503204904 66 0.0 0.0 0.00 0.00 0.00 63 1013.4
20260503203904 66 0.0 0.0 0.00 0.00 0.00 62 1013.3
20260503202905 66 0.0 0.0 0.00 0.00 0.00 62 1013.4
20260503201904 67 0.0 0.0 0.00 0.00 0.00 60 1013.3
20260503200904 67 0.0 0.0 0.00 0.00 0.00 61 1013.3
20260503195908 67 0.0 0.0 0.00 0.00 0.00 61 1013.3
20260503192905 67 0.0 0.0 0.00 0.00 0.00 64 1012.9
20260503191904 67 0.0 0.0 0.00 0.00 0.00 65 1012.6